Weather in Jacarei

Brazil     23°18′15″S   45°57′44″W
temp.,
°C
wind,
m/s
gust,
m/s
humid.,
%
clouds,
%
prec.,
mm/h
press.,
hPa
HPBL,
m
18 april, sun
sun1800:00+18n119528 0.9 101415
03:00+17ese009687 0.9 101318
06:00+17nnw009640 0.1 101435
09:00+20ne008176 0.1 1015440
12:00+22sw22696 0.1 1014695
15:00+23ssw337314 1.9 1012843
18:00+18ssw379565 4.4 1013257
21:00+18ssw3492100 6.5 1015276
19 april, mon
mon1900:00+18wsw129394 0.2 1015125
03:00+16sw239655 0.3 1014109
06:00+16wsw139594 0.0 101578
09:00+19wsw248557 0.1 1016495
12:00+22ssw457099 0.3 10151195
15:00+22ssw566748 0.9 10141219
18:00+17ssw248925 0.3 1016230
21:00+17sse14911 0.7 1017280
20 april, tue
tue2000:00+15wsw019633 0.0 101713
03:00+16s0191100 0.0 101669
06:00+16nnw119069 0.0 101648
09:00+19sse127852 0.1 1017581
12:00+22s346061 0.3 10161371
15:00+21s56684 0.5 1015978
18:00+17s24870 0.2 1017266
21:00+16w009088 0.2 101813
21 april, wed
wed2100:00+17wsw118615 0.1 101732
03:00+14wsw119538 0.1 101614
06:00+14nnw009299 0.0 101743
09:00+17w118294 0.0 1018323
12:00+22sse136285 0.1 10161320
15:00+22s445855 0.2 10141245
18:00+17s36862 0.0 1016258
21:00+15sw129333 0.0 101862
22 april, thu
thu2200:00+16ssw128599 0.0 1017216
03:00+17sw1279100 0.0 1016322
06:00+17nw017998 0.0 101722
09:00+20nne016814 0.0 1018769
12:00+24sw11540 0.0 10161234
15:00+25ssw224930 0.0 10131809
18:00+18s37843 0.2 1016320
21:00+16sw129259 0.2 1018140